Wind_Speed
24 26 26 26 27 23 22 24 26 27 28 30 32 33 31 26 24 22 19 15 8 9 2 8 18 23 20 17 19 18 13 12 9 5 6 5 5 4 4 5 6 6 8 10 11 12 13 16 17
24 26 28 28 29 25 22 23 25 30 32 33 35 35 32 29 26 26 23 18 18 15 16 22 22 21 20 15 19 20 15 12 9 8 6 5 4 2 3 4 4 6 7 9 10 11 14 16 18
29 29 29 28 27 27 27 28 29 30 32 36 38 35 33 31 32 27 25 21 23 20 22 22 27 22 21 18 20 21 17 13 11 9 8 7 4 2 2 3 3 5 6 7 10 11 13 17 20
28 30 30 31 28 31 28 30 34 34 35 37 38 38 33 32 33 29 25 22 21 12 11 30 28 23 22 18 21 22 20 16 14 11 10 8 6 4 2 1 2 4 6 8 9 10 14 18 22
27 28 30 28 27 30 30 34 37 38 39 40 37 40 34 37 35 32 26 21 10 7 15 21 25 26 26 21 20 20 19 18 16 14 12 11 8 5 3 1 1 3 5 6 8 9 14 18 23
28 29 31 29 28 32 32 33 41 45 41 43 41 38 36 42 39 35 31 23 19 16 18 18 23 25 24 22 22 20 18 17 15 14 14 13 11 8 6 4 3 4 5 6 8 10 13 18 24
28 30 31 31 29 33 36 36 40 46 48 46 44 41 38 42 42 37 32 25 20 19 30 35 32 28 25 21 22 21 20 19 18 16 16 16 14 11 8 5 5 4 6 9 9 11 15 19 24
29 31 32 32 34 33 42 41 44 48 52 52 48 45 42 42 42 39 34 27 23 20 37 30 30 27 24 25 23 23 22 22 20 19 18 17 15 12 9 7 7 6 5 8 9 13 17 21 25
31 33 34 36 36 36 44 41 44 51 55 57 54 46 45 42 43 42 37 26 29 29 38 35 31 29 29 26 25 26 25 23 21 19 18 18 16 12 10 8 8 8 7 9 11 14 17 22 27
36 37 38 39 39 39 44 43 44 50 59 60 57 52 50 46 46 45 40 32 33 27 27 38 38 28 31 29 28 27 27 24 22 21 20 18 15 13 11 9 10 10 9 10 12 16 19 23 28
38 39 41 40 41 41 44 43 44 48 55 63 60 54 53 51 49 49 46 46 45 38 32 39 34 31 31 29 30 29 28 27 24 21 20 17 17 15 12 11 11 11 11 11 13 17 20 24 28
39 39 40 41 42 42 42 41 42 46 53 60 61 56 53 52 54 52 52 54 51 49 43 38 37 41 37 33 34 33 31 28 27 24 22 20 20 15 13 13 13 11 12 13 14 18 22 26 29
39 39 40 41 41 41 40 34 38 44 49 55 60 59 53 55 57 56 54 58 57 52 47 47 45 44 39 36 35 35 34 33 28 25 23 20 16 15 14 14 15 13 13 14 16 19 23 26 31
37 38 39 39 36 33 34 32 36 38 45 48 55 59 57 53 58 59 57 59 57 55 50 50 49 50 48 44 38 35 34 31 28 27 25 20 16 14 14 17 16 14 15 15 18 20 23 27 31
36 32 32 29 28 29 31 31 33 34 41 44 49 55 60 54 59 60 60 61 59 55 56 54 57 52 49 51 45 43 39 33 29 30 26 22 18 17 17 18 17 15 15 15 18 21 23 27 30
28 24 18 18 23 27 29 34 36 37 36 41 46 50 58 58 58 62 63 60 59 60 57 57 57 51 49 49 52 46 41 37 34 32 27 23 20 19 18 18 19 15 14 16 19 20 23 27 29
19 18 17 20 26 30 33 31 37 44 44 39 43 48 52 58 57 63 67 67 65 62 62 57 54 53 50 52 52 47 45 39 35 30 26 23 20 18 20 20 18 16 17 19 18 19 24 27 25
19 18 21 24 31 37 40 34 41 43 45 43 39 44 48 55 55 62 64 68 66 63 65 61 61 63 57 53 50 50 46 42 35 29 24 21 20 21 20 20 18 18 20 21 15 20 23 26 22
23 22 23 27 34 40 39 34 39 46 48 44 46 43 46 45 54 61 62 64 67 64 70 67 68 67 65 58 52 50 48 41 34 32 27 22 21 21 21 20 20 20 24 20 19 21 22 24 20
27 27 29 30 35 41 37 35 35 45 48 51 48 51 46 45 43 59 62 64 63 63 67 66 67 74 65 59 50 49 49 42 39 33 30 21 23 23 24 23 24 27 24 20 23 19 21 20 18
24 27 33 34 36 41 41 38 31 36 46 50 53 48 48 48 42 47 63 68 67 68 71 61 72 58 60 58 53 50 49 44 40 36 27 24 23 27 25 25 25 24 25 23 19 18 20 16 17
20 26 30 33 36 39 39 42 29 34 39 49 51 51 48 47 49 49 57 67 71 71 72 70 65 68 66 61 57 49 45 40 25 27 29 23 26 27 24 25 25 24 22 17 17 20 18 14 15
21 24 26 30 34 39 34 39 24 31 32 38 45 51 54 52 49 50 48 68 72 73 71 75 50 55 62 61 59 50 44 41 35 29 31 28 29 27 26 26 24 24 17 17 20 20 15 13 14
24 26 27 30 33 36 30 34 22 19 22 28 36 43 50 56 54 51 51 61 71 76 70 67 62 63 55 50 58 54 45 44 35 32 30 32 31 27 28 25 23 19 19 19 22 18 12 13 14
26 30 30 35 39 31 29 29 19 22 24 23 28 36 45 51 52 53 53 51 72 73 75 71 74 75 46 56 63 59 50 46 39 37 31 28 32 32 29 26 21 19 20 22 21 18 14 14 15
21 26 31 37 37 30 28 19 14 22 26 27 27 31 35 45 51 51 55 55 62 75 77 79 73 73 59 54 56 58 49 45 41 39 35 33 32 33 33 27 22 22 21 21 20 17 17 17 17
23 26 30 33 36 37 21 20 20 21 17 17 20 27 32 35 46 54 59 63 59 69 74 75 67 61 59 61 61 58 48 42 43 45 41 38 36 35 34 27 23 26 22 23 20 19 18 17 19
25 25 28 31 36 43 28 20 18 20 13 12 7 17 25 24 22 26 46 63 61 66 71 70 61 51 58 58 53 52 49 46 45 44 43 39 39 37 34 28 27 25 23 23 19 18 18 18 20
24 23 28 33 35 37 34 22 13 14 11 11 12 12 15 13 17 25 39 57 60 58 63 68 54 51 56 53 42 34 44 44 42 33 33 49 46 41 35 31 28 25 24 21 20 19 19 19 19
26 25 26 30 34 34 30 6 9 11 13 12 13 15 15 15 16 18 38 47 55 54 56 61 51 68 53 37 27 27 34 39 34 37 43 44 49 42 42 33 29 26 22 22 19 20 19 19 20
Wind_Direction
253 254 252 251 252 252 247 242 237 240 242 243 243 245 252 252 255 255 257 263 287 292 198 219 199 211 211 227 221 228 225 214 196 185 148 126 105 86 71 52 44 42 47 35 29 23 15 9 360
257 255 255 255 255 256 251 246 240 235 237 242 244 245 247 253 253 254 258 261 255 255 220 198 215 208 207 214 222 231 221 226 201 186 176 147 134 107 72 53 38 37 33 28 24 23 8 357 353
263 260 257 257 258 259 254 249 246 241 237 236 243 246 248 249 255 256 263 269 276 283 249 215 216 206 203 200 218 228 224 228 218 198 194 175 178 138 86 64 17 29 24 14 16 12 359 351 350
262 263 262 259 258 258 257 254 251 245 241 238 238 243 247 249 252 256 258 268 283 295 234 192 204 200 202 200 214 217 221 221 225 211 210 196 191 187 171 110 357 8 14 7 7 355 349 346 346
261 261 260 261 260 259 255 254 254 247 246 244 239 239 241 244 246 249 249 252 265 191 143 193 214 207 201 195 211 215 213 216 221 220 221 214 208 203 200 215 310 345 6 356 348 345 346 338 344
264 263 262 261 258 258 253 249 254 255 249 245 240 238 232 241 245 246 247 243 239 211 194 199 215 220 217 202 205 212 213 217 216 221 227 228 219 209 213 230 278 329 338 337 333 338 336 334 341
270 267 266 264 259 256 254 250 249 253 250 246 243 237 231 233 239 242 245 242 241 228 202 200 204 216 215 215 219 214 212 212 212 213 225 231 225 217 216 232 266 316 326 326 332 332 328 333 335
276 275 271 266 262 257 258 252 249 250 252 249 244 238 232 229 233 238 237 233 237 234 212 210 206 207 216 219 223 228 221 218 213 212 218 226 230 225 222 233 268 293 310 312 324 324 323 329 329
282 277 275 272 269 265 265 261 257 252 250 250 246 239 233 227 225 229 231 224 219 218 216 208 210 207 218 215 217 226 228 226 223 219 221 227 229 232 234 242 265 284 303 305 312 314 320 326 326
286 283 281 278 275 270 267 266 256 250 245 246 246 240 232 227 221 219 221 202 191 200 207 209 208 205 217 216 221 218 221 222 220 220 224 227 230 231 237 249 267 284 293 299 304 310 320 326 328
287 291 289 285 280 275 270 267 260 250 245 242 245 240 233 225 223 214 212 206 211 219 217 208 208 208 213 215 218 215 217 214 218 222 222 228 227 226 231 246 260 279 289 294 298 309 318 322 330
290 289 287 283 279 273 270 267 261 253 244 241 240 239 231 221 221 218 209 211 215 219 220 215 207 209 209 210 214 210 211 212 214 218 223 225 226 222 227 245 257 271 281 286 294 306 316 324 331
291 289 285 284 280 277 271 263 256 255 249 242 239 236 231 220 217 217 211 208 214 218 220 220 218 206 203 201 206 210 214 215 213 217 222 225 231 227 228 243 258 267 275 284 295 306 317 328 333
290 288 285 285 284 275 265 259 256 251 250 246 240 235 231 221 216 215 212 209 211 215 219 212 221 213 206 202 206 213 211 209 212 221 222 223 221 223 231 243 256 267 272 284 295 309 320 329 334
292 294 293 294 290 277 262 253 254 252 250 246 244 236 232 221 213 212 214 211 208 214 214 224 218 211 209 207 206 207 208 214 213 216 219 220 217 216 227 243 253 261 270 283 295 309 324 331 329
292 289 289 294 293 286 274 256 248 258 256 249 243 240 232 226 211 210 210 208 206 208 215 220 212 208 210 208 210 211 203 208 213 215 213 214 216 218 224 238 249 254 265 281 291 312 324 328 324
291 293 284 288 291 294 281 265 258 253 256 252 247 242 235 228 213 210 209 211 209 211 216 213 216 211 210 203 209 212 204 203 207 210 211 211 215 221 227 236 245 246 259 274 295 315 322 322 322
270 286 290 296 289 290 289 287 260 251 248 245 245 242 238 230 220 210 209 209 209 210 212 217 220 211 208 206 210 213 204 200 200 203 209 214 211 218 226 234 240 245 263 273 296 317 317 316 320
272 287 296 296 292 292 294 300 266 254 247 239 239 236 235 235 223 214 210 209 211 211 216 220 221 215 213 203 207 209 204 203 208 206 210 203 211 219 232 233 236 250 263 273 291 309 313 312 318
275 282 296 298 295 292 294 298 286 251 246 243 236 232 229 227 227 219 208 208 206 208 217 216 218 212 210 205 206 208 210 207 214 209 215 202 210 219 234 235 233 242 259 274 300 301 305 306 315
285 284 295 296 298 296 292 289 279 257 247 245 237 227 230 228 225 223 214 207 206 207 214 212 215 210 214 208 207 208 209 211 216 205 210 211 212 223 237 238 243 248 260 274 284 294 295 306 308
286 293 297 304 304 299 295 290 283 253 248 246 241 229 227 226 229 224 220 210 205 211 215 211 210 209 208 206 207 211 214 219 205 191 212 209 219 223 230 237 246 251 263 267 280 284 293 298 303
292 298 307 313 315 310 304 290 290 251 250 245 242 237 233 229 227 227 223 215 209 212 219 212 205 209 206 209 207 205 213 216 215 205 210 211 220 225 225 233 243 256 252 270 283 280 286 284 300
298 308 318 323 325 321 299 293 288 273 267 240 241 237 235 234 230 226 221 220 215 210 219 216 217 215 214 228 216 206 213 215 213 212 215 216 222 223 223 230 240 243 253 269 282 282 271 279 292
301 311 321 335 335 331 313 293 299 297 299 283 263 245 234 235 232 225 222 216 219 213 212 217 220 221 228 234 212 211 213 212 207 210 217 220 223 224 221 228 230 243 256 270 283 278 275 282 294
304 313 325 331 333 328 323 308 282 277 287 286 275 257 253 246 238 233 227 211 218 217 208 214 221 220 224 224 216 208 211 212 208 211 215 218 225 224 225 224 233 251 261 268 274 273 276 281 292
304 312 325 333 337 329 321 301 282 270 277 261 254 239 243 243 249 238 230 216 213 215 214 214 217 220 223 218 221 208 207 210 213 217 218 217 215 225 222 228 239 249 259 264 265 272 272 283 290
308 313 321 333 329 323 327 307 296 275 259 272 270 242 230 240 245 225 215 207 212 212 217 217 212 208 217 226 222 203 198 209 212 217 221 220 221 219 228 234 241 247 254 259 261 263 272 276 282
307 308 316 322 320 317 320 315 279 265 263 286 274 246 235 227 218 207 202 207 213 211 215 217 208 212 208 226 214 193 202 210 210 223 224 227 222 218 228 234 240 247 250 256 257 266 268 272 278
300 310 312 306 320 316 321 18 308 283 274 252 248 250 244 212 214 206 201 199 201 206 211 215 202 202 196 198 204 205 207 208 214 221 238 227 213 216 216 230 239 237 250 251 257 264 262 265 276
Height
5862 5863 5865 5867 5871 5873 5875 5879 5880 5879 5879 5880 5881 5883 5886 5891 5894 5898 5898 5899 5901 5902 5901 5901 5905 5910 5913 5917 5920 5922 5923 5923 5922 5923 5921 5920 5918 5918 5918 5918 5919 5919 5918 5917 5916 5916 5915 5913 5912
5857 5859 5860 5863 5864 5867 5871 5872 5872 5872 5874 5874 5876 5880 5885 5889 5891 5893 5895 5897 5899 5900 5900 5902 5904 5906 5909 5915 5919 5921 5919 5923 5922 5921 5921 5920 5918 5918 5917 5918 5918 5918 5918 5917 5916 5916 5915 5913 5911
5851 5853 5856 5857 5859 5862 5865 5865 5864 5866 5867 5869 5870 5876 5881 5887 5886 5890 5893 5895 5896 5896 5895 5896 5901 5904 5906 5909 5916 5919 5918 5920 5921 5919 5920 5919 5918 5917 5917 5917 5917 5917 5917 5916 5916 5915 5914 5912 5910
5846 5847 5849 5850 5855 5854 5859 5858 5856 5859 5860 5861 5867 5869 5879 5881 5882 5886 5890 5892 5894 5890 5885 5890 5897 5901 5904 5908 5912 5915 5915 5916 5919 5918 5918 5918 5916 5916 5916 5916 5916 5916 5917 5916 5915 5914 5913 5912 5909
5840 5841 5842 5845 5848 5847 5852 5851 5848 5849 5852 5854 5860 5864 5875 5871 5876 5880 5885 5888 5890 5890 5888 5896 5898 5899 5900 5904 5910 5912 5913 5914 5916 5916 5916 5916 5915 5915 5915 5915 5915 5915 5915 5914 5913 5912 5912 5910 5908
5834 5835 5835 5838 5841 5839 5842 5845 5841 5840 5845 5846 5851 5858 5867 5864 5870 5876 5879 5885 5886 5890 5888 5892 5897 5900 5901 5902 5905 5908 5910 5913 5913 5913 5914 5915 5913 5913 5914 5914 5913 5913 5913 5912 5911 5911 5910 5908 5906
5827 5827 5828 5830 5832 5831 5832 5836 5835 5831 5834 5835 5842 5851 5857 5859 5863 5869 5876 5881 5882 5885 5885 5885 5890 5897 5899 5901 5904 5904 5906 5909 5909 5909 5910 5912 5910 5911 5911 5912 5911 5911 5912 5912 5910 5910 5909 5906 5904
5820 5819 5819 5820 5821 5824 5817 5824 5826 5824 5822 5827 5831 5839 5848 5851 5857 5864 5870 5875 5879 5879 5881 5884 5887 5891 5895 5898 5900 5902 5904 5905 5906 5904 5905 5908 5908 5909 5909 5909 5910 5910 5910 5909 5909 5908 5907 5905 5902
5811 5810 5809 5810 5811 5813 5807 5812 5816 5817 5816 5815 5821 5832 5838 5844 5848 5855 5862 5868 5873 5874 5876 5880 5884 5886 5889 5892 5894 5899 5901 5903 5903 5902 5903 5905 5905 5908 5908 5908 5907 5908 5908 5907 5908 5906 5905 5903 5900
5800 5798 5797 5798 5799 5799 5799 5797 5802 5804 5803 5805 5808 5819 5826 5834 5838 5845 5854 5863 5867 5869 5868 5870 5876 5879 5883 5886 5890 5894 5897 5898 5898 5898 5899 5901 5903 5905 5906 5906 5906 5906 5905 5905 5905 5905 5903 5901 5898
5789 5786 5784 5784 5784 5787 5785 5784 5786 5789 5792 5792 5795 5804 5815 5824 5828 5835 5845 5853 5858 5862 5865 5864 5867 5871 5876 5881 5886 5888 5891 5892 5893 5894 5895 5897 5899 5901 5902 5903 5903 5903 5903 5903 5902 5903 5901 5898 5896
5780 5777 5774 5773 5773 5773 5771 5773 5772 5775 5778 5778 5782 5788 5800 5813 5817 5825 5834 5842 5847 5853 5859 5861 5861 5865 5870 5876 5880 5882 5884 5886 5886 5887 5891 5892 5896 5897 5898 5899 5900 5900 5901 5901 5900 5901 5899 5897 5895
5768 5766 5763 5761 5761 5761 5760 5762 5762 5762 5764 5768 5771 5776 5784 5796 5804 5812 5823 5831 5836 5843 5850 5853 5855 5857 5863 5866 5872 5876 5878 5881 5880 5883 5886 5888 5892 5894 5894 5895 5897 5897 5898 5898 5898 5898 5897 5894 5891
5757 5754 5752 5749 5749 5751 5751 5752 5751 5755 5752 5757 5760 5765 5771 5784 5793 5800 5808 5818 5828 5835 5841 5845 5848 5850 5854 5857 5862 5868 5870 5872 5875 5879 5881 5884 5887 5890 5891 5892 5893 5894 5895 5895 5895 5895 5894 5891 5887
5746 5745 5742 5741 5740 5741 5744 5746 5744 5745 5745 5747 5748 5754 5758 5770 5780 5789 5798 5807 5815 5824 5832 5837 5839 5844 5847 5851 5854 5856 5861 5865 5869 5872 5876 5879 5883 5885 5887 5889 5889 5891 5892 5892 5892 5891 5890 5888 5884
5737 5736 5735 5734 5732 5733 5736 5739 5738 5736 5737 5739 5739 5743 5748 5756 5769 5777 5786 5797 5806 5816 5823 5827 5833 5837 5841 5845 5847 5849 5853 5857 5862 5866 5869 5874 5879 5881 5883 5885 5886 5887 5889 5889 5888 5888 5886 5885 5882
5730 5729 5728 5727 5725 5725 5725 5731 5728 5726 5727 5730 5732 5734 5738 5743 5756 5766 5774 5785 5797 5805 5813 5820 5826 5831 5833 5834 5840 5844 5845 5850 5855 5861 5867 5869 5873 5877 5879 5880 5882 5884 5885 5885 5885 5884 5884 5882 5879
5725 5724 5723 5721 5720 5718 5714 5720 5717 5715 5713 5719 5722 5724 5730 5734 5744 5753 5763 5774 5785 5795 5803 5811 5815 5819 5823 5825 5830 5835 5839 5845 5850 5857 5863 5868 5870 5872 5874 5876 5879 5881 5882 5881 5882 5882 5880 5878 5876
5717 5717 5716 5713 5711 5708 5706 5707 5707 5703 5703 5706 5708 5713 5718 5725 5734 5741 5753 5763 5773 5785 5793 5800 5804 5810 5814 5817 5824 5832 5837 5842 5847 5852 5856 5862 5868 5869 5870 5872 5874 5877 5877 5878 5878 5878 5876 5874 5872
5711 5709 5709 5707 5702 5695 5693 5693 5692 5688 5690 5690 5692 5697 5706 5715 5720 5729 5741 5752 5762 5772 5779 5785 5792 5795 5804 5813 5821 5828 5832 5836 5841 5845 5851 5853 5860 5864 5866 5868 5870 5873 5874 5875 5875 5875 5872 5870 5869
5702 5701 5700 5696 5693 5684 5680 5678 5682 5677 5676 5675 5678 5688 5696 5706 5714 5720 5729 5739 5750 5760 5768 5774 5782 5789 5798 5808 5815 5822 5827 5832 5837 5842 5845 5849 5854 5860 5863 5865 5867 5868 5870 5872 5871 5870 5869 5867 5866
5697 5695 5690 5685 5680 5674 5668 5663 5670 5666 5663 5661 5668 5676 5682 5693 5701 5710 5717 5727 5738 5746 5754 5762 5768 5777 5788 5799 5811 5818 5825 5828 5829 5831 5837 5844 5848 5853 5857 5861 5864 5865 5866 5867 5867 5866 5866 5864 5863
5692 5689 5684 5677 5672 5665 5661 5649 5658 5652 5653 5654 5655 5663 5670 5678 5688 5698 5708 5718 5724 5729 5739 5752 5750 5770 5782 5793 5803 5810 5818 5822 5825 5828 5834 5839 5844 5848 5852 5855 5859 5862 5863 5862 5862 5862 5862 5861 5859
5685 5682 5677 5670 5664 5657 5653 5644 5648 5644 5642 5647 5648 5651 5657 5663 5676 5686 5697 5708 5716 5719 5727 5741 5754 5763 5774 5786 5798 5804 5812 5818 5822 5827 5831 5835 5840 5845 5847 5850 5854 5857 5858 5857 5858 5859 5857 5858 5857
5677 5674 5669 5662 5655 5651 5644 5639 5641 5635 5638 5641 5642 5644 5647 5653 5663 5675 5685 5697 5705 5715 5722 5732 5740 5751 5763 5778 5790 5799 5804 5811 5815 5821 5826 5832 5836 5840 5843 5847 5850 5852 5854 5853 5855 5856 5854 5853 5853
5673 5670 5666 5656 5650 5646 5640 5635 5635 5632 5632 5632 5633 5635 5638 5643 5650 5661 5671 5684 5693 5706 5716 5726 5732 5748 5763 5774 5781 5789 5799 5806 5809 5814 5820 5826 5831 5836 5840 5842 5845 5849 5849 5849 5851 5850 5850 5849 5848
5666 5664 5660 5650 5642 5638 5637 5633 5629 5626 5625 5624 5622 5626 5629 5635 5639 5645 5655 5671 5682 5694 5709 5719 5728 5744 5757 5767 5773 5781 5791 5799 5802 5809 5814 5818 5822 5831 5834 5837 5840 5843 5844 5845 5846 5847 5846 5845 5845
5661 5658 5654 5646 5639 5632 5631 5629 5625 5622 5621 5620 5619 5622 5624 5627 5629 5631 5640 5657 5672 5685 5699 5709 5723 5736 5748 5753 5761 5772 5783 5791 5794 5801 5808 5812 5819 5823 5826 5831 5835 5838 5839 5840 5841 5840 5842 5840 5841
5656 5651 5646 5641 5637 5630 5624 5625 5622 5619 5617 5616 5615 5617 5619 5621 5624 5627 5635 5647 5662 5675 5690 5702 5712 5724 5738 5747 5757 5765 5774 5782 5788 5792 5798 5806 5812 5816 5820 5826 5830 5833 5834 5835 5837 5837 5838 5837 5836
5650 5644 5641 5637 5633 5625 5620 5620 5618 5617 5616 5613 5613 5614 5617 5619 5623 5626 5632 5642 5654 5669 5685 5697 5707 5719 5726 5735 5749 5758 5768 5774 5781 5784 5789 5795 5803 5808 5813 5822 5826 5827 5829 5831 5831 5833 5832 5832 5832